Regional Weather Roundup
Issued by NWS

Home | Current Version | Previous Version | Text Only | Print | Product List | Glossary Off
Versions: 1 2 3 4 5 6 7 8 9 10 11 12 13 14 15 16 17 18 19 20 21 22 23 24 25 26 27 28 29 30 31 32 33 34 35 36 37 38 39 40 41 42 43 44 45 46 47 48 49 50

000
ASUS43 KLOT 050103
RWRIL

ILLINOIS REGIONAL WEATHER ROUNDUP
NATIONAL WEATHER SERVICE CHICAGO/ROMEOVILLE IL
800 PM CDT WED MAY 04 2016

NOTE: "FAIR" INDICATES FEW OR NO CLOUDS BELOW 12,000 FEET WITH NO
SIGNIFICANT WEATHER AND/OR OBSTRUCTIONS TO VISIBILITY.

* THESE STATIONS ARE NOT UNDER NWS QUALITY CONTROL. THEY ALSO MAY NOT
  REPORT WEATHER SUCH AS PRECIPITATION OR FOG.

ILZ001-002-007-009-015-016-024-050200-
NORTHWEST ILLINOIS

CITY           SKY/WX    TMP DP  RH WIND       PRES   REMARKS
MOLINE         CLEAR     60  32  34 N7        29.86R
STERLING*      CLOUDY    57  37  47 N7        29.85R
$$

ILZ003-004-008-010-011-017-018-050200-
NORTH CENTRAL ILLINOIS

CITY           SKY/WX    TMP DP  RH WIND       PRES   REMARKS
ROCKFORD       PTCLDY    53  35  50 N8        29.86R
FREEPORT*      PTCLDY    54  32  43 N8        29.86R
ROCHELLE*      PTCLDY    51  40  66 CALM      29.84S
DE KALB*       PTCLDY    50  40  69 N7        29.84R
$$

ILZ005-006-012>014-019>023-050200-
NORTHEAST ILLINOIS

CITY           SKY/WX    TMP DP  RH WIND       PRES   REMARKS
CHICAGO-OHARE  CLOUDY    44  35  70 N14       29.85R
CHICAGO-MIDWAY CLOUDY    46  34  62 N15       29.85R
AURORA         CLOUDY    53  40  61 N8        29.83R
LANSING*       CLOUDY    44  35  72 N12G18    29.85R
WAUKEGAN       CLOUDY    43  35  73 N10G29    29.85R
DUPAGE AIRPORT CLOUDY    47  36  65 NE13      29.84R
WHEELING       CLOUDY    44  35  70 NE13      29.87R
NORTHERLY ISL    N/A     43  36  76 N13         N/A
NORTHERLY ISL    N/A     43  36  76 N13         N/A
$$

LMZ740>746-050200-
SOUTHERN LAKE MICHIGAN

STATION/POSITION SKY/WX   TEMP    WIND        PRES    VSBY  WAVE
                          AIR SEA DIR/SP/G                  HT/PER
                          (F)     (DEG/KT/KT) (MB)    (MI)  (FT/S)
SOUTHERN BUOY              42 40   20/ 25/ 29 1008.9          9/ 8
WILMETTE HARBOR            42 44   20/ 12/ 16   N/A           6/ 7
HARRISON CRIB              44     350/ 18/ 20   N/A
BURNHAM HARBOR             43     340/ 14/ 17   N/A
CALUMET HARBOR             44                 1010.1R
BURNS HARBOR               44     360/ 17/ 23 1010.5R
MICHIGAN CITY              42     340/ 25/ 29   N/A
ST. JOSEPH                 42 47                N/A          10/ 8
$$

ILZ025>027-034>036-040-047-049-050-058-095>099-050200-
WEST-CENTRAL ILLINOIS

CITY           SKY/WX    TMP DP  RH WIND       PRES   REMARKS
QUINCY         PTCLDY    57  38  48 NW6       29.88S
MACOMB*        PTCLDY    58  35  41 N9        29.88S
PITTSFIELD*    MOCLDY    59  38  44 NW6       29.89S
$$

ILZ028>032-037-038-041>044-048-051>054-059>061-050200-
CENTRAL ILLINOIS

CITY           SKY/WX    TMP DP  RH WIND       PRES   REMARKS
BLOOMINGTON    CLOUDY    52  44  74 NW5       29.85S
DECATUR        CLOUDY    54  41  61 N6        29.84S
PEORIA         CLOUDY    59  32  36 N5        29.85R
LINCOLN*       CLOUDY    58  41  51 N6        29.85R
SPRINGFIELD    CLEAR     58  37  45 N7        29.86R
TAYLORVILLE    NOT AVBL
$$

ILZ033-039-045-046-055>057-062-063-050200-
EAST-CENTRAL ILLINOIS

CITY           SKY/WX    TMP DP  RH WIND       PRES   REMARKS
CHAMPAIGN      CLOUDY    52  43  71 NW6       29.83S
MATTOON        MOCLDY    50  43  77 N6        29.84R
$$

ILZ079-100>102-050200-
SOUTHWEST ILLINOIS

CITY           SKY/WX    TMP DP  RH WIND       PRES   REMARKS
ALTON          PTCLDY    59  34  38 NW12      29.88R
BELLEVILLE     CLEAR     59  38  47 VRB3      29.86R
CAHOKIA*       PTCLDY    61  33  35 N14       29.88R
SPARTA*        PTCLDY    58  39  49 N6        29.88R
$$

ILZ064>066-069>071-074>076-080>082-084>086-088>090-092>094-050200-
SOUTH-CENTRAL ILLINOIS

CITY           SKY/WX    TMP DP  RH WIND       PRES   REMARKS
CARBONDALE     PTCLDY    58  40  51 N8        29.86R
EFFINGHAM*     MOCLDY    55  44  66 NW3       29.87S
MT. VERNON     CLOUDY    57  36  44 N5        29.87R
SALEM*         MOCLDY    57  40  53 N8        29.86S
$$

ILZ067-068-072-073-078-083-087-091-050200-
SOUTHEAST ILLINOIS

CITY           SKY/WX    TMP DP  RH WIND       PRES   REMARKS
LAWRENCEVILLE  PTCLDY    53  42  66 N13       29.84R
FLORA*         CLOUDY    57  42  57 N7        29.86R
HARRISBURG*    PTCLDY    58  40  52 N10       29.86R
ROBINSON*      MOCLDY    51  41  68 N7        29.84S
$$

ABBREVIATIONS USED IN REMARKS
   TC - TEMPERATURE IN CELSIUS
  WCI - WIND CHILL INDEX
   HX - HEAT INDEX
  VSB - VISIBILITY
$$





USA.gov is the U.S. government's official web portal to all federal, state and local government web resources and services.